Weather History for CWGB - October, 2012

Change the Weather History Date:

Tuesday, October 2, 2012

  Actual Average Record
Temperature  
Mean Temperature 54 °F -  
Max Temperature 57 °F - - ()
Min Temperature 50 °F - - ()
Degree Days  
Heating Degree Days 12    
Growing Degree Days 4 (Base 50)    
Moisture  
Dew Point 42 °F    
Average Humidity 64    
Maximum Humidity 74    
Minimum Humidity 41    
Precipitation  
Precipitation 0.00 in - - ()
Sea Level Pressure  
Sea Level Pressure 30.19 in    
Wind  
Wind Speed 27 mph ()    
Max Wind Speed 34 mph    
Max Gust Speed 40 mph    
T = Trace of Precipitation, MM = Missing Value Source: Averaged Metar Reports

Daily Weather History Graph

Daily Weather History Graph

Search for Another Location

Airport or City:

Trip Planner

Search our weather history database for the weather conditions in past years. The results will help you decide how hot, cold, wet, or windy it might be!

Date:

Astronomy

Oct. 02, 2012 Rise Set
Actual Time 7:18 AM PDT 6:51 PM PDT
Civil Twilight 6:47 AM PDT 7:23 PM PDT
Nautical Twilight 6:09 AM PDT 8:00 PM PDT
Astronomical Twilight 5:32 AM PDT 8:38 PM PDT
Moon 7:48 PM PDT (10/2) 10:09 AM PDT (10/2)
Length of Visible Light 12h 36m
Length of Day
11h 33m
Waning Gibbous, 93% of the Moon is Illuminated
Oct 2
Waning Gibbous
Oct 8
Last Quarter
Oct 15
New
Oct 21
First Quarter
Oct 29
Full

Hourly Weather History & Observations

Time (PDT) Temp. Dew Point Humidity Pressure Visibility Wind Dir Wind Speed Gust Speed Precip Events Conditions
12:00 AM 55.0 °F 44.8 °F 68% 30.13 in - WNW 34.5 mph - N/A   Unknown
1:00 AM 54.3 °F 42.8 °F 65% 30.14 in - WNW 33.4 mph 39.1 mph N/A   Unknown
2:00 AM 53.8 °F 42.6 °F 66% 30.14 in - West 28.8 mph - N/A   Unknown
3:00 AM 53.2 °F 41.5 °F 65% 30.16 in - WNW 29.9 mph - N/A   Unknown
4:00 AM 52.7 °F 40.1 °F 62% 30.15 in - WNW 34.5 mph - N/A   Unknown
5:00 AM 52 °F 41 °F 56% 30.16 in - WNW 32.2 mph - -  
5:00 AM 52.0 °F 41.0 °F 66% 30.16 in - WNW 32.2 mph - N/A   Unknown
6:00 AM 51.6 °F 41.4 °F 68% 30.15 in - WNW 33.4 mph - N/A   Unknown
7:00 AM 51.3 °F 39.4 °F 64% 30.14 in - WNW 33.4 mph 40.3 mph N/A   Unknown
8:00 AM 51.1 °F 38.1 °F 61% 30.15 in - WNW 33.4 mph 40.3 mph N/A   Unknown
9:00 AM 50.9 °F 39.6 °F 65% 30.17 in - WNW 29.9 mph - N/A   Unknown
10:00 AM 51.3 °F 40.1 °F 66% 30.18 in - WNW 31.1 mph - N/A   Unknown
11:00 AM 51 °F 41 °F 59% 30.17 in - WNW 34.5 mph - -  
11:00 AM 51.4 °F 40.8 °F 67% 30.17 in - WNW 34.5 mph - N/A   Unknown
12:00 PM 51.6 °F 40.8 °F 67% 30.19 in - WNW 32.2 mph 38.0 mph N/A   Unknown
1:00 PM 52.3 °F 41.4 °F 66% 30.19 in - WNW 26.5 mph 32.2 mph N/A   Unknown
2:00 PM 53.6 °F 41.7 °F 64% 30.19 in - West 19.6 mph 26.5 mph N/A   Unknown
3:00 PM 54.7 °F 41.9 °F 62% 30.18 in - West 24.2 mph - N/A   Unknown
4:00 PM 56.3 °F 39.9 °F 54% 30.18 in - WNW 24.2 mph 29.9 mph N/A   Unknown
5:00 PM 57 °F 40 °F 41% 30.19 in - WNW 26.5 mph - -  
5:00 PM 57.0 °F 39.9 °F 53% 30.19 in - WNW 26.5 mph - N/A   Unknown
6:00 PM 55.9 °F 43.5 °F 63% 30.20 in - West 21.9 mph - N/A   Unknown
7:00 PM 55.8 °F 43.0 °F 62% 30.21 in - West 28.8 mph - N/A   Unknown
8:00 PM 54.7 °F 44.2 °F 68% 30.24 in - West 24.2 mph - N/A   Unknown
9:00 PM 54.0 °F 45.1 °F 72% 30.27 in - West 23.0 mph 29.9 mph N/A   Unknown
10:00 PM 53.2 °F 45.3 °F 74% 30.30 in - West 19.6 mph - N/A   Unknown
11:00 PM 53 °F 45 °F 65% 30.32 in - West 18.4 mph - -  
11:00 PM 52.9 °F 44.6 °F 73% 30.32 in - West 18.4 mph - N/A   Unknown